Skip Page Navigation
NASA JPL Caltech
NASA Logo - Jet Propulsion Laboratory + View the NASA Portal
+ Center for Near-Earth Object Studies
JPL Home Earth Solar System Stars & Galaxies Technology
JPL Solar System Dynamics
BODIES ORBITS EPHEMERIDES TOOLS PHYSICAL DATA DISCOVERY FAQ SITE MAP

Significant website upgrade scheduled for September 27. More details available here.

JPL Small-Body Database Browser
Search: [ help ]  
312066 (2007 TP12)
Classification: Main-belt Asteroid          SPK-ID: 2312066
Ephemeris | Orbit Diagram | Orbital Elements | Mission Design | Physical Parameters | Discovery Circumstances ]

[ show orbit diagram ]
Orbital Elements at Epoch 2459396.5 (2021-Jul-01.0) TDB
Reference: JPL 24 (heliocentric ecliptic J2000)
 Element Value Uncertainty (1-sigma)   Units 
e .2024261414738944 3.6618e-08  
a 2.370356790897583 1.0433e-08 au
q 1.890534611799743 8.6222e-08 au
i 2.405340942142644 3.7917e-06 deg
node 64.56534572631435 0.00010621 deg
peri 306.5516141264399 0.00010683 deg
M 284.5037028626587 1.0593e-05 deg
tp 2459676.038840972458
(2022-Apr-06.53884097)
4.0009e-05 TDB
period 1332.965808468904
3.65
8.8004e-06
2.409e-08
d
yr
n .2700744443051468 1.7831e-09 deg/d
Q 2.850178969995424 1.2545e-08 au
  Orbit Determination Parameters
   # obs. used (total)      511  
   data-arc span      7102 days (19.44 yr)  
   first obs. used      2000-12-05  
   last obs. used      2020-05-16  
   planetary ephem.      DE441  
   SB-pert. ephem.      SB441-N16  
   condition code      0  
   norm. resid. RMS      .50793  
   source      ORB  
   producer      Otto Matic  
   solution date      2021-Aug-25 20:13:56  

Additional Information
 Earth MOID = .89092 au 
 Jupiter MOID = 2.61491 au 
 T_jup = 3.516 
[ hide covariance matrix ]
Orbital Elements at Epoch 2457082.5 (2015-Mar-01.0) TDB
Reference: JPL 24 (heliocentric ecliptic J2000)
 Element Value Uncertainty (1-sigma)   Units 
e .2014004519118747 3.6586e-08  
q 1.893230147285105 8.6019e-08 au
tp 2457007.483022207426
(2014-Dec-15.98302221)
3.6328e-05 TDB
node 64.63386140771573 0.00010632 deg
peri 306.0729906047926 0.00010694 deg
i 2.404777065855851 3.7875e-06 deg
  Orbit Determination Parameters
   # obs. used (total)      511  
   data-arc span      7102 days (19.44 yr)  
   first obs. used      2000-12-05  
   last obs. used      2020-05-16  
   planetary ephem.      DE441  
   SB-pert. ephem.      SB441-N16  
   condition code      0  
   norm. resid. RMS      .50793  
   source      ORB  
   producer      Otto Matic  
   solution date      2021-Aug-25 20:13:56  

Additional Information
 Jupiter MOID = 2.61491 au 
 T_jup = 3.516 
Orbit Covariance (6×6)
  e q tp node peri i
e 1.338542804243426E-15 -3.132181378770929E-15 -1.835407268373013E-13 6.361689503926499E-15 -6.035783344471285E-14 -1.326650165265618E-15
q -3.132181378770929E-15 7.399279884275668E-15 4.379966968766222E-13 -1.573746461904485E-14 1.451316048889639E-13 3.181964694337276E-15
tp -1.835407268373013E-13 4.379966968766222E-13 1.319703992383156E-9 -1.822594296433634E-11 4.386816400421962E-10 1.097965543444828E-12
node 6.361689503926499E-15 -1.573746461904485E-14 -1.822594296433634E-11 1.130324420174575E-8 -1.129876214927791E-8 -1.358297827411676E-11
peri -6.035783344471285E-14 1.451316048889639E-13 4.386816400421962E-10 -1.129876214927791E-8 1.143691248827741E-8 1.393127669268271E-11
i -1.326650165265618E-15 3.181964694337276E-15 1.097965543444828E-12 -1.358297827411676E-11 1.393127669268271E-11 1.434544256118296E-11

Ephemeris | Orbit Diagram | Orbital Elements | Mission Design | Physical Parameters | Discovery Circumstances ]

Physical Parameter Table
Parameter Symbol Value Units Sigma Reference Notes
absolute magnitude H 16.63   n/a E2021B25  

312066 (2007 TP12)          Discovered 2007-Oct-06 by LINEAR at Socorro
Reference: 20120109/Numbers.arcLast Updated: 2012-01-11

Alternate Designations
 2007 TP12 = 2005 CG14 
Ephemeris | Orbit Diagram | Orbital Elements | Mission Design | Physical Parameters | Discovery Circumstances ]
ABOUT SSD CREDITS/AWARDS PRIVACY/COPYRIGHT GLOSSARY LINKS
FirstGov 2021-Sep-23 13:20 UT
(server date/time)  
NASA Home Page
Site Manager:   Ryan S. Park
Webmaster  Alan B. Chamberlin